Saint Michaels, AZ

1:58 AM MST on February 14, 2016 (GMT -0700)
Window Rock

Weather History for KRQE - March, 2013

Change the Weather History Date:

Thursday, March 21, 2013

  Actual Average Record
Temperature  
Mean Temperature 50 °F -  
Max Temperature 63 °F 55 °F 73 °F (2004)
Min Temperature 33 °F 24 °F 6 °F (1948)
Degree Days  
Heating Degree Days 16    
Moisture  
Dew Point 14 °F    
Average Humidity 29    
Maximum Humidity 60    
Minimum Humidity 8    
Precipitation  
Precipitation 0.00 in - - ()
Sea Level Pressure  
Sea Level Pressure 29.66 in    
Wind  
Wind Speed 9 mph (WSW)    
Max Wind Speed 23 mph    
Max Gust Speed 32 mph    
Visibility 10 miles    
Events      
Averages and records for this station are not official NWS values.
T = Trace of Precipitation, MM = Missing Value Source: NWS Daily Summary

Daily Weather History Graph

Daily Weather History Graph

Search for Another Location

Airport or City:

Trip Planner

Search our weather history database for the weather conditions in past years. The results will help you decide how hot, cold, wet, or windy it might be!

Date:

Astronomy

Mar. 21, 2013 Rise Set
Actual Time 7:18 AM MDT 7:29 PM MDT
Civil Twilight 6:52 AM MDT 7:54 PM MDT
Nautical Twilight 6:22 AM MDT 8:24 PM MDT
Astronomical Twilight 5:52 AM MDT 8:54 PM MDT
Moon 2:11 PM MDT (3/21) 3:32 AM MDT (3/21)
Length of Visible Light 13h 02m
Length of Day
12h 11m
Waxing Gibbous, 69% of the Moon is Illuminated
Mar 21
Waxing Gibbous
Mar 27
Full
Apr 2
Last Quarter
Apr 10
New
Apr 18
First Quarter

Hourly Weather History & Observations

Time (MDT) Temp. Windchill Dew Point Humidity Pressure Visibility Wind Dir Wind Speed Gust Speed Precip Events Conditions
12:53 AM 46.0 °F - 25.0 °F 44% 29.73 in 10.0 mi Calm Calm - N/A   Scattered Clouds
1:53 AM 45.0 °F 40.6 °F 25.0 °F 46% 29.71 in 10.0 mi SSW 8.1 mph - N/A   Partly Cloudy
2:53 AM 45.0 °F 39.3 °F 25.0 °F 46% 29.70 in 10.0 mi WSW 11.5 mph 18.4 mph N/A   Clear
3:53 AM 43.0 °F 37.7 °F 25.0 °F 49% 29.69 in 10.0 mi WSW 9.2 mph - N/A   Mostly Cloudy
4:53 AM 43.0 °F 38.8 °F 26.1 °F 51% 29.68 in 10.0 mi WSW 6.9 mph - N/A   Overcast
5:53 AM 42.1 °F 38.4 °F 25.0 °F 51% 29.69 in 10.0 mi WSW 5.8 mph - N/A   Mostly Cloudy
7:53 AM 37.9 °F 35.5 °F 25.0 °F 60% 29.73 in 10.0 mi SSW 3.5 mph - N/A   Clear
8:53 AM 48.0 °F - 26.1 °F 42% 29.69 in 10.0 mi West 18.4 mph 27.6 mph N/A   Partly Cloudy
9:53 AM 51.1 °F - 27.0 °F 39% 29.68 in 10.0 mi West 17.3 mph 23.0 mph N/A   Clear
10:53 AM 55.0 °F - 19.0 °F 24% 29.66 in 10.0 mi WNW 18.4 mph 28.8 mph N/A   Clear
11:53 AM 57.0 °F - 19.9 °F 24% 29.65 in 10.0 mi West 21.9 mph 32.2 mph N/A   Clear
12:53 PM 60.1 °F - 14.0 °F 16% 29.63 in 10.0 mi West 19.6 mph 28.8 mph N/A   Clear
1:53 PM 60.1 °F - 10.9 °F 14% 29.61 in 10.0 mi WSW 21.9 mph 29.9 mph N/A   Clear
2:53 PM 62.1 °F - 7.0 °F 11% 29.59 in 10.0 mi West 23.0 mph 31.1 mph N/A   Clear
3:53 PM 61.0 °F - 5.0 °F 11% 29.58 in 10.0 mi WNW 13.8 mph 25.3 mph N/A   Clear
4:53 PM 61.0 °F - 5.0 °F 11% 29.59 in 10.0 mi West 19.6 mph 28.8 mph N/A   Clear
5:53 PM 59.0 °F - -2.0 °F 8% 29.60 in 10.0 mi West 19.6 mph 26.5 mph N/A   Clear
6:53 PM 55.9 °F - -2.9 °F 9% 29.64 in 10.0 mi WNW 12.7 mph 23.0 mph N/A   Clear
7:53 PM 48.0 °F - 1.0 °F 14% 29.68 in 10.0 mi Calm Calm - N/A   Clear
8:53 PM 43.0 °F 41.3 °F 3.0 °F 19% 29.67 in 10.0 mi SSW 3.5 mph - N/A   Clear
9:53 PM 39.0 °F - 6.1 °F 26% 29.69 in 10.0 mi Calm Calm - N/A   Clear
10:53 PM 39.0 °F - 7.0 °F 27% 29.69 in 10.0 mi Calm Calm - N/A   Clear
11:53 PM 33.1 °F - 7.0 °F 34% 29.71 in 10.0 mi Calm Calm - N/A   Clear